W0QQ Weather Reports


Display with metric or nautical units.
time (UTC)temp
F
wind
direction
speed
MPH
gust
MPH
rain 1hr
in
rain 24hr
in
rain mn
in
humidity
%
barometer
mb
20260903183034 97 11 5.0 13.0 0.00 0.00 0.00 50 1010.5
20260903181541 96 11 3.0 15.0 0.00 0.00 0.00 49 1010.7
20260903180027 96 11 5.0 18.0 0.00 0.00 0.00 49 1010.9
20260903174525 95 211 7.0 17.0 0.00 0.00 0.00 51 1011.0
20260903173021 95 11 4.0 21.0 0.00 0.00 0.00 53 1011.3
20260903171531 94 11 5.0 16.0 0.00 0.00 0.00 53 1011.5
20260903170015 93 11 5.0 23.0 0.00 0.00 0.00 54 1011.7
20260903164511 93 11 7.0 20.0 0.00 0.00 0.00 54 1011.8
20260903163011 92 234 7.0 20.0 0.00 0.00 0.00 57 1011.9
20260903161503 91 224 5.0 18.0 0.00 0.00 0.00 58 1011.9
20260903160105 90 203 5.0 22.0 0.00 0.00 0.00 59 1012.0
20260903154554 89 11 9.0 21.0 0.00 0.00 0.00 59 1011.9
20260903153049 88 220 5.0 21.0 0.00 0.00 0.00 61 1011.8
20260903151549 87 11 5.0 21.0 0.00 0.00 0.00 63 1012.0
20260903150100 87 11 8.0 19.0 0.00 0.00 0.00 63 1012.0
20260903144537 86 209 8.0 20.0 0.00 0.00 0.00 65 1012.0
20260903143037 84 11 4.0 12.0 0.00 0.00 0.00 68 1012.1
20260903141529 83 192 5.0 18.0 0.00 0.00 0.00 69 1012.1
20260903140025 82 11 5.0 18.0 0.00 0.00 0.00 71 1012.2
20260903134523 81 11 4.0 17.0 0.00 0.00 0.00 71 1012.3
20260903133025 81 11 4.0 13.0 0.00 0.00 0.00 72 1012.3
20260903131518 80 11 5.0 13.0 0.00 0.00 0.00 72 1012.2
20260903130016 80 11 4.0 14.0 0.00 0.00 0.00 73 1012.1
20260903124516 79 11 5.0 13.0 0.00 0.00 0.00 73 1011.9
20260903123113 79 11 4.0 15.0 0.00 0.00 0.00 73 1011.9
20260903121509 79 200 4.0 13.0 0.00 0.00 0.00 73 1011.8
20260903120007 79 11 5.0 12.0 0.00 0.00 0.00 73 1011.5
20260903114504 79 11 5.0 14.0 0.00 0.00 0.00 72 1011.5
20260903113002 79 191 3.0 12.0 0.00 0.00 0.00 72 1011.4
20260903111617 79 197 4.0 14.0 0.00 0.00 0.00 71 1011.4
20260903110100 80 11 5.0 14.0 0.00 0.00 0.00 70 1011.3
20260903104610 80 11 4.0 14.0 0.00 0.00 0.00 70 1011.3
20260903103105 80 11 5.0 13.0 0.00 0.00 0.00 69 1011.0
20260903101559 81 11 6.0 19.0 0.00 0.00 0.00 68 1011.1
20260903100059 81 200 7.0 18.0 0.00 0.00 0.00 68 1011.0
20260903094559 81 11 6.0 18.0 0.00 0.00 0.00 67 1011.0
20260903093122 81 199 5.0 19.0 0.00 0.00 0.00 67 1010.9
20260903091554 81 191 3.0 11.0 0.00 0.00 0.00 66 1010.9
20260903090049 81 190 2.0 18.0 0.00 0.00 0.00 66 1011.0
20260903084548 80 11 3.0 12.0 0.00 0.00 0.00 67 1010.9
20260903083051 80 186 2.0 10.0 0.00 0.00 0.00 67 1010.9
20260903081545 80 11 1.0 11.0 0.00 0.00 0.00 67 1010.8
20260903080044 79 11 3.0 12.0 0.00 0.00 0.00 67 1011.0
20260903074545 79 161 1.0 6.0 0.00 0.00 0.00 68 1010.7
20260903073042 79 158 1.0 6.0 0.00 0.00 0.00 68 1010.9
20260903071546 80 11 1.0 5.0 0.00 0.00 0.00 67 1011.0
20260903070055 80 11 0.0 5.0 0.00 0.00 0.00 67 1011.0
20260903064537 80 11 1.0 5.0 0.00 0.00 0.00 66 1011.0
20260903063039 81 11 1.0 6.0 0.00 0.00 0.00 66 1011.0
20260903061633 81 11 1.0 5.0 0.00 0.00 0.00 65 1011.1
20260903060031 81 186 1.0 8.0 0.00 0.00 0.00 64 1011.0
20260903054537 82 185 1.0 5.0 0.00 0.00 0.00 64 1011.1
20260903053032 82 11 2.0 6.0 0.00 0.00 0.00 64 1011.0
20260903051527 82 11 1.0 6.0 0.00 0.00 0.00 63 1011.0
20260903050027 82 11 0.0 5.0 0.00 0.00 0.00 63 1011.0
20260903044522 83 11 1.0 4.0 0.00 0.00 0.00 62 1011.0
20260903043026 83 11 1.0 8.0 0.00 0.00 0.00 61 1011.0
20260903041523 84 11 1.0 4.0 0.00 0.00 0.00 61 1011.1
20260903040021 84 174 1.0 5.0 0.00 0.00 0.00 60 1011.1
20260903034526 84 11 2.0 6.0 0.00 0.00 0.00 61 1011.1
20260903033020 84 11 2.0 6.0 0.00 0.00 0.00 61 1011.1
20260903031519 84 11 1.0 5.0 0.00 0.00 0.00 61 1011.0
20260903030018 84 165 1.0 5.0 0.00 0.00 0.00 61 1011.0
20260903024518 85 11 0.0 3.0 0.00 0.00 0.00 60 1010.9
20260903023032 85 177 1.0 6.0 0.00 0.00 0.00 59 1010.8
20260903021518 86 11 0.0 4.0 0.00 0.00 0.00 58 1010.8
20260903020016 86 11 0.0 8.0 0.00 0.00 0.00 57 1010.4
20260903014521 87 11 1.0 5.0 0.00 0.00 0.00 55 1010.3
20260903013016 88 11 0.0 3.0 0.00 0.00 0.00 54 1010.2
20260903011521 89 11 0.0 3.0 0.00 0.00 0.00 52 1010.0
20260903010017 91 11 0.0 3.0 0.00 0.00 0.00 50 1009.8
20260903004523 92 11 0.0 2.0 0.00 0.00 0.00 48 1009.8
20260903003013 93 11 0.0 4.0 0.00 0.00 0.00 47 1009.7
20260903000059 95 191 1.0 8.0 0.00 0.00 0.00 44 1009.7
20260902234627 96 11 2.0 6.0 0.00 0.00 0.00 44 1009.8
20260902233041 96 191 4.0 15.0 0.00 0.00 0.00 42 1010.0
20260902231621 97 11 4.0 13.0 0.00 0.00 0.00 42 1009.8
20260902230035 97 199 6.0 13.0 0.00 0.00 0.00 41 1009.9
20260902224622 97 255 6.0 16.0 0.00 0.00 0.00 40 1010.0
20260902223035 97 11 7.0 17.0 0.00 0.00 0.00 42 1010.0
20260902221620 98 211 4.0 15.0 0.00 0.00 0.00 42 1010.0
20260902220030 99 194 2.0 14.0 0.00 0.00 0.00 42 1010.0
20260902214625 99 11 4.0 16.0 0.00 0.00 0.00 40 1010.1
20260902213025 100 11 9.0 20.0 0.00 0.00 0.00 39 1010.3
20260902211617 101 11 5.0 12.0 0.00 0.00 0.00 39 1010.6
20260902210026 101 223 5.0 16.0 0.00 0.00 0.00 38 1010.7
20260902204621 101 11 5.0 15.0 0.00 0.00 0.00 39 1011.0
20260902201503 100 197 6.0 18.0 0.00 0.00 0.00 41 1011.3
20260902200048 101 156 4.0 23.0 0.00 0.00 0.00 41 1011.4
20260902194631 100 11 6.0 21.0 0.00 0.00 0.00 41 1011.7
20260902193051 100 11 2.0 17.0 0.00 0.00 0.00 45 1011.9
20260902191503 100 11 7.0 19.0 0.00 0.00 0.00 42 1012.0
20260902190049 100 250 8.0 14.0 0.00 0.00 0.00 43 1012.1
20260902184502 99 11 7.0 19.0 0.00 0.00 0.00 45 1012.3